GEFSSGP_con_cape1000_048.txt.gz
Probability
0 0 0 0 0 0 0 0 0 0 0 3 0 0 0 0 0 35 84 0 16 61 90 100 100 100 100 100 100 100 100 100 100 100 100 100 100 100 100 100 100 100 100 100 100 100 100 97 90
0 0 0 0 0 0 0 0 0 0 3 6 3 6 6 16 52 77 39 3 45 97 97 90 100 100 100 100 100 100 100 100 100 100 100 100 100 100 100 100 100 100 100 100 100 94 87 84 84
0 0 0 0 0 0 0 0 0 0 3 3 13 16 16 35 68 71 61 26 71 97 100 100 100 100 100 100 100 100 100 100 100 100 100 100 100 100 100 100 100 100 100 100 94 74 71 61 58
0 0 0 0 0 0 0 0 0 0 0 0 10 19 39 65 71 71 61 45 90 97 100 100 100 100 100 100 100 100 100 100 100 100 100 100 100 100 100 100 100 100 97 94 74 74 58 48 48
0 0 0 0 0 0 0 0 0 0 0 3 6 10 29 77 81 65 68 68 87 87 90 100 100 100 100 100 100 100 100 100 100 100 100 100 100 100 100 100 97 97 87 81 68 58 39 35 26
0 0 0 0 0 0 0 0 0 0 3 3 6 6 32 87 81 71 74 68 65 81 87 100 100 100 100 100 100 100 100 100 100 100 100 100 100 100 100 100 97 97 87 81 52 29 26 19 13
0 0 0 0 0 0 0 0 0 0 0 0 6 10 39 77 81 71 68 52 35 48 81 100 100 100 100 100 100 100 100 100 100 100 100 100 100 100 100 100 97 97 87 71 55 32 29 23 23
0 0 0 0 0 0 0 0 0 0 0 0 0 3 23 74 87 81 71 55 35 48 61 94 97 100 100 100 100 100 100 100 100 100 100 100 100 100 100 100 97 90 74 61 58 42 35 23 16
0 0 0 0 0 0 0 0 3 3 0 3 6 10 29 84 94 87 77 77 71 68 77 77 90 97 97 97 100 100 100 100 100 100 100 100 100 94 100 97 90 77 71 65 55 48 39 23 19
0 0 0 0 0 0 0 0 3 0 0 0 3 42 87 100 97 94 90 84 87 84 77 77 87 100 97 100 100 100 100 100 100 100 100 100 97 97 81 90 90 81 71 65 58 48 29 6 10
0 0 0 0 0 0 0 0 0 0 3 3 6 48 90 100 94 97 94 81 77 87 87 65 90 100 94 100 100 100 100 100 100 100 100 100 100 100 84 94 90 90 71 58 52 39 13 10 6
0 0 0 0 0 0 0 0 0 0 0 0 3 32 94 94 90 84 90 77 71 77 84 74 94 100 100 100 100 100 100 100 100 100 100 100 100 100 84 90 68 74 65 58 35 32 10 13 0
0 0 0 0 0 0 0 0 0 0 0 0 3 35 84 94 90 90 94 94 74 77 87 81 100 100 100 100 100 97 97 97 97 100 100 100 97 94 77 90 84 71 58 55 52 29 10 6 3
0 0 0 0 0 0 0 0 0 0 0 0 6 29 81 84 90 90 100 100 87 87 97 100 100 100 100 100 100 100 97 100 90 94 100 100 97 97 97 94 90 77 68 55 45 16 13 10 3
0 0 0 0 0 0 0 0 0 0 0 3 6 19 58 74 87 94 100 100 100 100 97 100 100 100 100 100 100 100 97 97 97 94 100 97 97 97 97 94 97 84 71 71 58 32 19 10 10
0 0 0 0 0 0 0 0 0 0 0 3 3 16 48 68 77 94 97 100 100 100 97 100 100 100 100 100 100 100 97 90 90 87 87 87 90 90 90 90 84 77 68 65 48 39 19 10 6
0 0 0 0 0 0 0 0 0 0 0 0 3 6 32 39 71 87 97 97 100 100 100 100 100 100 100 100 97 97 90 87 81 74 77 77 71 68 77 77 68 65 61 52 32 26 23 16 10
0 0 0 0 0 0 0 0 0 0 0 0 0 3 16 32 48 61 84 87 100 100 100 100 100 100 100 97 94 84 81 77 68 65 61 58 52 48 52 45 42 32 29 19 16 16 16 10 10
0 0 0 0 0 0 0 0 0 0 0 0 3 6 13 19 32 52 74 90 94 100 100 100 100 100 97 94 84 77 71 58 42 42 39 32 26 26 19 13 6 13 16 16 13 10 3 0 0
0 0 0 0 0 0 0 0 0 0 0 6 6 10 16 19 26 35 58 81 87 94 97 100 100 100 97 97 81 71 58 45 35 26 23 19 13 13 6 6 3 10 3 0 0 0 0 0 0
0 0 0 0 0 0 0 0 0 0 3 6 10 16 19 23 26 29 35 71 81 90 90 94 100 100 97 87 71 48 39 32 23 19 10 6 6 3 3 3 3 0 0 0 0 0 0 0 0
0 0 0 0 0 0 0 0 0 0 3 10 23 32 42 42 35 35 35 58 84 94 97 97 97 97 84 71 65 52 45 35 29 16 10 6 3 3 0 0 0 0 0 0 0 0 0 0 0
0 0 0 0 0 0 0 0 0 0 3 10 39 42 45 45 48 39 45 58 71 84 90 90 90 81 71 65 58 48 39 35 16 6 6 3 0 0 0 0 0 0 0 0 0 0 0 0 0
0 0 0 0 0 0 0 0 0 0 19 26 42 45 45 39 45 52 52 61 71 77 74 71 61 45 45 48 39 42 39 13 6 6 0 0 0 0 0 0 0 0 0 0 0 0 0 0 0
0 0 0 0 0 0 0 0 0 23 42 45 45 48 42 26 26 39 42 45 45 42 35 32 39 29 26 23 23 26 19 6 6 0 3 3 0 0 0 0 0 0 0 0 0 0 0 0 0
0 0 0 0 0 0 0 0 0 35 52 55 52 48 26 23 10 3 6 16 19 16 16 16 13 10 10 13 6 3 3 3 3 3 0 0 0 0 0 0 0 0 0 0 0 0 0 0 0
0 0 0 0 0 0 0 0 26 42 52 48 42 29 10 6 6 6 6 6 6 6 3 6 6 0 0 0 0 0 0 0 0 0 0 0 0 0 0 0 0 0 0 0 0 0 0 0 0
0 0 0 0 0 0 0 0 0 42 45 48 23 16 10 0 0 0 0 0 0 0 0 0 0 0 0 0 0 0 0 0 0 0 0 0 0 0 0 0 0 0 0 0 0 0 0 0 0
0 0 0 0 0 0 0 0 0 45 45 32 19 10 10 0 0 0 0 0 0 0 0 0 0 0 0 0 0 0 0 0 0 0 0 0 0 0 0 0 0 0 0 0 0 0 0 0 0
0 0 0 0 0 0 0 0 6 42 45 23 13 6 3 3 0 0 0 0 0 0 0 0 0 0 0 0 0 0 0 0 0 0 0 0 0 0 0 0 0 0 0 0 0 0 0 0 0

GEFSSGP_con_cape1000_054.txt.gz
Probability
0 0 0 0 0 0 0 0 0 0 0 0 0 0 0 3 23 71 71 48 84 55 90 100 100 100 100 100 100 100 100 100 100 100 100 100 100 100 100 100 100 100 100 100 100 100 97 94 90
0 0 0 0 0 0 0 0 0 0 0 0 0 0 3 16 19 26 39 74 94 84 90 97 100 100 100 100 100 100 100 100 100 100 100 100 100 100 100 100 100 100 100 100 97 94 87 77 74
0 0 0 0 0 0 0 0 0 0 0 0 0 0 3 16 16 39 58 84 94 84 97 100 100 100 100 100 100 100 100 100 100 100 100 100 100 100 100 100 100 100 100 100 84 77 77 61 55
0 0 0 0 0 0 0 0 0 0 0 0 0 3 16 6 16 42 52 90 97 94 100 100 100 100 100 100 100 100 100 100 100 100 100 100 100 100 100 100 100 100 100 77 71 68 55 48 42
0 0 0 0 0 0 0 0 0 0 0 0 0 13 26 19 48 48 58 94 100 97 100 100 100 100 100 100 100 100 100 100 100 100 100 100 100 100 100 100 97 97 84 74 65 55 42 32 23
0 0 0 0 0 0 0 0 0 0 0 0 0 13 39 32 52 58 58 81 94 97 97 100 100 100 100 100 100 100 100 100 100 100 100 100 100 100 100 100 97 90 81 68 52 39 29 23 10
0 0 0 0 0 0 0 0 0 0 0 0 0 13 35 42 52 42 58 61 81 97 97 100 100 100 100 100 100 100 100 100 100 100 100 100 100 100 100 100 97 90 77 65 48 32 26 23 13
0 0 0 0 0 0 0 0 0 0 0 0 0 10 42 58 45 42 42 48 52 90 97 94 97 100 100 100 100 100 100 100 100 100 100 100 100 100 100 100 97 90 77 61 48 39 29 26 23
0 0 0 0 0 0 0 0 0 0 0 0 0 10 35 52 29 35 35 39 45 81 94 87 100 100 100 100 100 100 100 100 100 100 100 100 100 100 100 100 97 90 77 68 58 52 48 39 35
0 0 0 0 0 0 0 0 0 0 0 0 6 19 45 48 42 35 29 32 42 65 94 94 100 100 100 100 100 100 100 100 100 100 100 100 100 100 97 97 100 90 74 74 71 58 58 45 26
0 0 0 0 0 0 0 0 0 0 0 0 3 19 58 52 45 35 29 35 45 55 84 94 100 100 100 100 100 100 100 100 100 100 100 100 97 100 100 100 97 97 81 71 74 65 48 35 29
0 0 0 0 0 0 0 0 0 0 0 0 0 16 52 58 42 39 39 35 61 61 61 84 100 100 100 100 100 100 100 100 100 100 97 100 100 97 97 100 100 100 87 90 77 68 45 42 23
0 0 0 0 0 0 0 0 0 0 0 0 0 13 29 58 52 42 45 45 61 81 74 90 100 100 100 100 100 100 100 97 97 97 97 97 97 97 97 97 97 97 90 90 77 68 68 32 19
0 0 0 0 0 0 0 0 0 0 0 0 0 6 29 48 52 35 52 77 84 90 94 97 100 100 100 100 100 100 97 97 97 97 97 97 97 97 97 97 97 97 100 87 81 68 52 45 42
0 0 0 0 0 0 0 0 0 0 0 0 0 6 16 39 65 58 52 94 97 100 100 100 100 100 100 100 100 100 97 97 97 97 97 97 97 97 97 94 94 94 94 97 87 58 52 35 26
0 0 0 0 0 0 0 0 0 0 0 0 0 3 13 35 52 61 65 97 100 100 100 100 100 100 100 100 100 100 97 97 97 97 97 97 97 97 97 94 90 87 87 81 58 45 26 23 16
0 0 0 0 0 0 0 0 0 0 0 0 0 6 13 23 32 48 55 87 97 100 100 100 100 100 100 100 100 100 100 97 97 97 94 90 90 84 81 84 81 77 61 52 29 29 19 13 6
0 0 0 0 0 0 0 0 0 0 0 0 3 10 10 19 35 45 68 81 90 97 100 100 100 100 100 100 100 100 97 97 94 87 81 74 71 61 68 61 58 48 45 32 16 13 10 6 3
0 0 0 0 0 0 0 0 0 0 0 3 6 10 10 16 26 45 58 84 94 94 97 100 100 100 100 100 100 97 97 90 81 71 71 58 55 55 55 48 45 35 32 10 3 3 3 6 3
0 0 0 0 0 0 0 0 0 0 3 6 6 16 26 29 48 71 77 77 97 97 97 97 100 100 100 100 97 94 94 71 61 55 55 55 48 45 32 29 26 23 13 10 3 0 0 0 0
0 0 0 0 0 0 0 0 0 0 3 6 16 26 32 39 52 65 74 81 90 94 94 94 94 97 97 97 94 87 71 58 55 48 42 39 32 29 19 19 19 16 10 6 10 0 0 0 0
0 0 0 0 0 0 0 0 0 3 3 16 26 48 52 58 58 65 65 71 87 90 90 94 94 94 94 94 87 74 65 52 52 42 35 19 10 10 6 10 6 10 6 6 6 0 0 0 0
0 0 0 0 0 0 0 0 0 3 3 32 45 48 58 55 58 48 55 65 71 77 74 81 81 77 81 77 68 61 48 45 45 35 19 10 6 3 3 3 3 3 0 0 0 0 0 0 0
0 0 0 0 0 0 0 0 0 16 32 42 65 45 32 39 32 29 32 26 39 45 48 52 52 45 55 52 48 42 42 39 29 19 10 10 6 3 0 0 0 0 0 0 0 0 0 0 0
0 0 0 0 0 0 0 0 16 71 74 68 45 19 19 16 16 13 13 13 23 26 26 23 19 19 23 23 19 23 19 23 13 6 10 3 3 0 0 0 0 0 0 0 0 0 0 0 0
0 0 0 0 0 0 0 0 48 90 77 42 29 16 10 6 6 6 6 6 6 6 10 13 10 10 10 3 6 6 6 3 3 3 3 0 0 0 0 0 0 0 0 0 0 0 0 0 0
0 0 0 0 0 0 0 32 74 81 58 32 23 10 6 3 3 0 0 3 0 0 0 0 3 3 3 3 3 3 0 3 0 0 0 0 0 0 0 0 0 0 0 0 0 0 0 0 0
0 0 0 0 0 0 0 19 55 74 45 29 19 3 3 0 0 0 0 0 0 0 0 0 0 0 0 0 0 0 0 0 0 0 0 0 0 0 0 0 0 0 0 0 0 0 0 0 0
0 0 0 0 0 0 0 6 45 81 29 19 6 0 0 0 0 0 0 0 0 0 0 0 0 0 0 0 0 0 0 0 0 0 0 0 0 0 0 0 0 0 0 0 0 0 0 0 0
0 0 0 0 0 0 0 32 71 48 23 10 0 0 0 0 0 0 0 0 0 0 0 0 0 0 0 0 0 0 0 0 0 0 0 0 0 0 0 0 0 0 0 0 0 0 0 0 0

GEFSSGP_con_cape1000_060.txt.gz
Probability
0 0 0 0 0 0 0 0 0 0 0 0 0 0 10 19 10 0 0 3 32 90 100 100 100 100 100 100 100 100 100 100 100 100 100 100 100 100 100 100 100 100 100 100 97 97 90 90 90
0 0 0 0 0 0 0 0 0 0 0 0 0 0 16 45 48 6 0 10 52 90 100 100 100 100 100 100 100 100 100 100 100 100 100 100 100 100 100 100 100 100 100 97 94 87 84 81 77
0 0 0 0 0 0 0 0 0 0 0 0 0 0 10 45 58 19 0 32 61 90 100 100 100 100 100 100 100 100 100 100 100 100 100 100 100 100 100 100 100 100 97 94 84 65 65 65 61
0 0 0 0 0 0 0 0 0 0 0 0 6 3 6 42 68 26 6 26 55 94 100 100 100 100 100 100 100 100 100 100 100 100 100 100 100 100 100 100 100 100 97 81 68 61 61 55 35
0 0 0 0 0 0 0 0 0 0 0 0 3 10 32 71 58 13 3 19 52 94 100 100 100 100 100 100 100 100 100 100 100 100 100 100 100 100 100 100 100 94 77 74 65 55 48 35 26
0 0 0 0 0 0 0 0 0 0 0 0 3 6 29 71 52 19 3 10 39 90 100 100 100 100 100 100 100 100 100 100 100 100 100 100 100 100 100 100 97 87 74 68 55 48 39 32 23
0 0 0 0 0 0 0 0 0 0 0 3 6 0 26 61 74 35 16 13 26 77 100 100 100 100 100 100 100 100 100 100 100 100 100 100 100 100 100 100 94 87 81 65 58 42 39 29 29
0 0 0 0 0 0 0 0 0 0 0 0 6 19 19 58 74 58 39 19 23 61 94 100 100 100 100 100 100 100 100 100 100 100 100 100 100 100 100 100 94 90 81 68 68 58 55 52 45
0 0 0 0 0 0 0 0 0 0 0 0 3 3 23 48 65 71 65 42 32 35 74 81 94 97 100 100 100 100 100 100 100 100 100 100 100 100 100 97 100 90 84 74 74 68 71 58 45
0 0 0 0 0 0 0 0 0 0 3 6 13 23 32 52 52 65 71 61 45 26 26 65 77 84 90 94 100 100 100 100 100 100 100 97 71 71 100 100 100 97 94 81 74 77 71 45 26
0 0 0 0 0 0 0 0 0 0 0 6 16 23 32 45 39 55 77 74 55 23 16 35 39 55 55 74 97 97 97 94 87 90 97 52 16 19 71 68 97 90 87 68 65 68 52 32 19
0 0 0 0 0 0 0 0 0 0 0 3 6 19 19 23 26 26 55 84 74 45 29 29 32 29 35 68 74 74 71 65 55 52 58 23 3 3 19 23 61 68 55 29 13 16 26 13 10
0 0 0 0 0 0 0 0 0 0 0 3 13 13 13 19 16 16 29 65 77 65 48 42 39 35 42 61 48 58 55 52 26 32 39 13 3 3 10 16 29 26 16 13 10 10 6 6 6
0 0 0 0 0 0 0 0 0 0 3 6 13 13 10 13 10 16 16 52 71 71 61 68 65 52 68 68 55 55 55 52 19 29 58 26 13 13 19 13 16 13 10 13 6 6 6 6 6
0 0 0 0 0 0 0 0 0 0 0 0 10 13 10 10 13 16 16 23 52 58 65 71 84 74 77 77 68 71 68 71 35 35 61 48 23 10 13 10 13 10 10 10 6 3 3 3 0
0 0 0 0 0 0 0 0 0 0 0 0 3 10 16 13 16 16 16 19 19 35 48 84 94 90 90 94 77 81 84 84 61 52 58 55 39 23 6 10 6 6 0 0 0 0 0 0 0
0 0 0 0 0 0 0 0 0 0 0 0 3 13 23 23 26 19 23 23 23 16 52 81 94 97 97 87 84 77 77 77 61 55 45 42 42 26 10 3 3 0 0 0 0 0 0 0 0
0 0 0 0 0 0 0 0 0 0 0 3 3 6 26 32 35 26 39 42 45 42 55 71 90 94 90 84 84 81 61 52 39 35 39 23 32 26 10 3 0 0 0 0 0 0 0 0 0
0 0 0 0 0 0 0 3 0 6 19 10 6 6 19 19 23 23 39 39 35 35 48 61 87 97 84 87 81 74 61 48 32 29 19 23 26 10 6 3 0 0 0 0 0 0 0 0 0
0 0 0 0 0 0 3 0 6 16 19 19 16 23 23 23 19 26 29 16 23 32 42 65 84 90 84 81 71 55 45 23 13 19 13 16 13 6 10 3 0 0 0 0 0 0 0 0 0
0 0 0 0 0 0 0 3 13 26 26 23 23 16 23 23 19 19 16 6 3 26 42 55 65 77 84 77 55 48 26 16 16 13 10 3 10 10 3 3 0 0 0 0 0 0 0 0 0
0 0 0 0 0 0 0 0 6 32 26 35 32 23 23 23 23 23 13 13 19 29 39 45 61 65 65 58 48 42 35 19 10 6 0 0 3 0 0 0 0 0 0 0 0 0 0 0 0
0 0 0 0 0 0 0 0 6 23 23 16 16 16 13 23 19 19 23 19 16 23 29 35 32 42 32 26 29 23 13 10 3 0 0 0 0 0 0 0 0 0 0 0 0 0 0 0 0
0 0 0 0 0 0 0 0 6 29 13 13 10 13 10 10 13 16 16 19 19 13 13 16 10 10 10 6 10 10 10 3 3 0 0 0 0 0 0 0 0 0 0 0 0 0 0 0 0
0 0 0 0 0 0 0 3 23 19 10 10 10 10 10 10 10 10 10 10 6 6 6 6 6 6 3 3 6 6 6 0 0 0 0 0 0 0 0 0 0 0 0 0 0 0 0 0 0
0 0 0 0 0 0 0 10 52 10 6 6 6 3 3 3 3 3 3 3 3 3 3 6 3 0 0 0 0 0 0 0 0 0 0 0 0 0 0 0 0 0 0 0 0 0 0 0 0
0 0 0 0 0 0 0 35 45 10 6 6 0 0 0 0 0 0 0 0 0 3 3 3 0 0 0 0 0 0 0 0 0 0 0 0 0 0 0 0 0 0 0 0 0 0 0 0 0
0 0 0 0 0 0 0 6 16 10 3 0 0 0 0 0 0 0 0 0 0 0 0 0 0 0 0 0 0 0 0 0 0 0 0 0 0 0 0 0 0 0 0 0 0 0 0 0 0
0 0 0 0 0 0 0 0 6 3 0 0 0 0 0 0 0 0 0 0 0 0 0 0 0 0 0 0 0 0 0 0 0 0 0 0 0 0 0 0 0 0 0 0 0 0 0 0 0
0 0 0 0 0 0 0 0 3 3 0 0 0 0 0 0 0 0 0 0 0 0 0 0 0 0 0 0 0 0 0 0 0 0 0 0 0 0 0 0 0 0 0 0 0 0 0 0 0

GEFSSGP_con_cape1000_066.txt.gz
Probability
0 0 0 0 0 0 0 0 0 0 0 0 0 0 0 0 0 0 0 6 29 97 100 100 100 100 100 100 100 100 100 100 100 100 100 100 100 100 100 100 100 100 100 100 100 97 97 97 100
0 0 0 0 0 0 0 0 0 0 0 0 0 0 6 16 3 0 3 23 74 100 100 100 100 100 100 100 100 100 100 100 100 100 100 100 100 100 100 100 100 100 100 97 97 97 97 97 97
0 0 0 0 0 0 0 0 0 0 0 0 0 0 16 26 10 0 6 55 90 100 100 100 100 100 100 100 100 100 100 100 100 100 100 100 100 100 100 100 100 100 97 94 87 87 84 81 84
0 0 0 0 0 0 0 0 0 0 0 0 0 3 29 58 13 6 32 81 87 100 100 100 100 100 100 100 100 100 100 100 100 100 100 100 100 100 100 100 100 97 94 87 81 74 71 71 68
0 0 0 0 0 0 0 0 0 0 0 0 0 6 45 65 29 29 71 81 84 90 100 100 100 100 100 100 100 100 100 100 100 100 100 100 100 100 100 100 100 94 87 77 71 65 65 55 48
0 0 0 0 0 0 0 0 0 0 0 0 3 16 42 42 42 48 65 71 81 87 100 100 100 100 100 100 100 100 100 100 100 100 100 100 100 100 100 100 97 94 77 77 61 55 42 42 39
0 0 0 0 0 0 0 0 0 0 0 0 0 32 48 35 26 35 42 71 84 94 100 100 100 100 100 100 100 100 100 100 100 100 100 100 100 100 100 100 97 90 81 77 58 52 42 39 39
0 0 0 0 0 0 0 0 0 0 0 0 16 29 42 26 13 23 42 77 90 97 97 97 100 100 100 100 100 100 100 100 100 100 100 100 100 100 100 100 97 84 81 71 65 55 48 48 48
0 0 0 0 0 0 0 0 0 0 0 0 3 23 39 29 19 26 45 74 90 97 97 97 100 100 100 100 100 100 100 100 100 100 100 100 100 100 100 100 94 81 77 74 68 68 65 58 55
0 0 0 0 0 0 0 0 0 0 0 3 6 29 58 32 23 19 35 39 58 84 97 87 94 97 100 100 100 100 100 100 100 100 100 97 77 74 94 90 97 90 84 84 81 74 71 55 29
0 0 0 0 0 0 0 0 0 0 0 0 13 58 65 32 23 10 6 10 32 42 84 87 81 90 90 87 97 94 90 90 90 94 94 65 32 39 68 52 77 84 84 65 55 52 39 32 26
0 0 0 0 0 0 0 0 0 0 0 0 10 65 77 58 39 13 10 6 6 19 52 81 81 81 74 61 84 77 77 81 71 61 52 29 13 10 13 6 16 55 45 45 42 13 16 16 10
0 0 0 0 0 0 0 0 0 0 0 3 29 71 84 74 65 32 16 10 6 10 23 48 65 58 45 29 65 65 52 65 52 35 39 13 10 0 0 0 0 10 26 29 16 10 6 6 6
0 0 0 0 0 0 0 0 0 0 0 19 45 58 71 77 71 65 55 29 10 10 10 19 39 39 26 19 45 45 42 39 29 19 23 16 3 0 0 0 0 0 3 6 10 6 6 6 6
0 0 0 0 0 0 0 0 0 0 0 16 39 48 58 52 61 65 55 55 26 23 6 10 16 16 19 16 16 16 23 19 16 13 16 13 3 0 0 0 0 0 3 3 3 3 0 0 0
0 0 0 0 0 0 0 0 0 0 0 10 16 32 32 35 42 39 52 45 48 29 23 16 19 13 10 3 6 13 10 13 13 10 6 3 3 3 0 0 0 0 0 0 0 0 0 0 0
0 0 0 0 0 0 0 0 0 0 3 10 16 23 29 29 23 29 35 42 42 39 29 19 10 13 13 3 3 10 13 6 6 0 0 0 3 3 0 0 0 0 0 0 0 0 0 0 0
0 0 0 0 0 0 0 0 3 10 3 6 10 16 19 16 16 10 16 32 26 35 29 29 29 13 13 16 16 19 16 6 6 0 0 0 3 0 0 0 0 0 0 0 0 0 0 0 0
0 0 0 0 0 0 0 10 10 10 3 0 0 0 10 16 13 6 10 19 23 26 29 35 39 39 29 23 26 26 19 13 0 0 3 0 0 0 0 0 0 0 0 0 0 0 0 0 0
0 0 0 3 0 0 6 13 19 16 10 3 3 10 6 13 10 6 6 16 19 23 23 39 42 35 48 45 29 13 13 13 6 3 0 0 0 0 0 0 0 0 0 0 0 0 0 0 0
0 0 0 0 0 0 3 6 19 26 13 16 3 10 10 3 3 10 13 13 23 32 26 32 35 35 35 23 13 10 3 3 3 3 3 3 0 0 0 0 0 0 0 0 0 0 0 0 0
0 0 0 0 0 0 0 0 13 23 16 23 16 13 16 13 10 10 13 16 19 19 23 16 26 26 19 13 16 10 16 13 6 6 3 0 0 0 0 0 0 0 0 0 0 0 0 0 0
0 0 0 0 0 0 0 0 3 13 13 10 13 10 6 6 3 10 13 16 16 13 10 6 3 10 10 10 10 10 13 6 6 0 0 0 0 0 0 0 0 0 0 0 0 0 0 0 0
0 0 0 0 0 0 0 0 3 10 10 10 6 3 3 10 6 3 6 6 3 0 3 3 0 3 3 0 0 3 6 6 0 0 0 0 0 0 0 0 0 0 0 0 0 0 0 0 0
0 0 0 0 0 0 0 0 6 10 3 3 3 3 3 3 3 3 3 6 3 0 0 3 3 3 0 0 0 0 3 3 0 0 0 0 0 0 0 0 0 0 0 0 0 0 0 0 0
0 0 0 0 0 0 0 3 6 6 3 3 3 0 0 0 0 0 0 0 0 0 0 0 3 3 0 0 0 0 0 0 0 0 0 0 0 0 0 0 0 0 0 0 0 0 0 0 0
0 0 0 0 0 0 0 0 6 3 3 3 0 0 0 0 0 0 0 0 0 0 0 0 3 0 0 0 0 0 0 0 0 0 0 0 0 0 0 0 0 0 0 0 0 0 0 0 0
0 0 0 0 0 0 0 0 0 6 3 3 0 0 0 0 0 0 0 0 0 0 0 0 0 0 0 0 0 0 0 0 0 0 0 0 0 0 0 0 0 0 0 0 0 0 0 0 0
0 0 0 0 0 0 0 0 0 3 3 0 0 0 0 0 0 0 0 0 0 0 0 0 0 0 0 0 0 0 0 0 0 0 0 0 0 0 0 0 0 0 0 0 0 0 0 0 0
0 0 0 0 0 0 0 0 0 0 3 0 0 0 0 0 0 0 0 0 0 0 0 0 0 0 0 0 0 0 0 0 0 0 0 0 0 0 0 0 0 0 0 0 0 0 0 0 0

GEFSSGP_con_cape1000_072.txt.gz
Probability
0 0 0 0 0 0 0 0 0 0 0 0 0 0 0 0 0 39 90 77 94 100 97 100 100 100 100 100 100 100 100 100 100 100 100 100 100 100 100 100 100 100 100 100 100 100 100 100 100
0 0 0 0 0 0 0 0 0 0 0 0 0 0 0 10 42 71 90 90 100 100 97 87 100 100 100 100 100 100 100 100 100 100 100 100 100 100 100 100 100 100 100 100 100 100 100 100 100
0 0 0 0 0 0 0 0 0 0 0 0 0 0 3 42 71 97 100 100 100 100 100 100 100 100 100 100 100 100 100 100 100 100 100 100 100 100 100 100 100 100 100 100 97 97 100 97 97
0 0 0 0 0 0 0 0 0 0 0 0 0 3 39 90 87 97 100 100 100 100 100 100 100 100 100 100 100 100 100 100 100 100 100 100 100 100 100 100 100 100 97 97 87 87 84 84 81
0 0 0 0 0 0 0 0 0 0 0 0 3 6 52 100 100 100 100 100 100 100 100 100 100 100 100 100 100 100 100 100 100 100 100 100 100 100 100 100 100 97 87 81 81 77 74 71 68
0 0 0 0 0 0 0 0 0 0 0 0 0 3 61 100 100 97 100 100 100 100 100 100 100 100 100 100 100 100 100 100 100 100 100 100 100 100 100 100 100 94 84 81 68 52 48 48 52
0 0 0 0 0 0 0 0 0 0 0 0 0 6 65 100 100 97 97 97 94 94 100 100 100 100 100 100 100 100 100 100 100 100 100 100 100 100 100 100 94 90 81 68 52 45 35 35 39
0 0 0 0 0 0 0 0 0 0 0 0 0 3 45 97 100 97 97 94 87 90 100 100 100 100 97 97 100 100 100 100 100 100 100 100 100 100 97 97 94 87 81 65 58 55 42 48 45
0 0 0 0 0 0 0 0 0 0 0 0 6 19 52 97 100 97 97 94 94 87 100 100 97 100 100 97 100 100 100 100 100 100 100 100 87 81 90 94 90 84 74 74 68 68 61 52 45
0 0 0 0 0 0 0 0 0 0 0 0 13 39 84 97 100 100 97 94 97 90 94 100 100 100 100 100 100 100 100 100 100 100 97 94 90 90 61 90 97 87 87 77 77 71 68 55 52
0 0 0 0 0 0 0 0 0 0 0 0 10 32 81 97 100 100 100 97 90 94 90 94 100 100 100 100 100 100 100 100 97 97 100 100 97 87 58 87 97 94 87 84 81 77 58 45 42
0 0 0 0 0 0 0 0 0 0 0 0 10 29 65 97 100 100 97 81 77 84 90 94 100 100 100 100 100 100 100 100 97 97 100 90 90 81 58 81 55 81 84 81 74 61 52 45 35
0 0 0 0 0 0 0 0 0 0 0 3 16 32 61 90 94 100 87 77 74 81 90 87 100 100 100 100 100 100 100 97 90 97 94 87 65 68 58 77 94 77 71 77 77 55 55 45 29
0 0 0 0 0 0 0 0 0 0 6 10 26 42 61 84 90 100 90 81 81 81 87 94 97 100 100 100 100 100 100 100 87 87 90 81 74 65 87 90 100 90 84 81 77 65 68 52 32
0 0 0 0 0 0 0 0 0 3 6 16 32 48 74 81 90 97 97 90 84 90 94 97 97 100 100 100 100 100 97 97 84 84 90 94 77 94 94 81 100 97 97 94 87 87 77 68 48
0 0 0 0 0 0 0 3 3 6 13 23 35 55 77 81 94 97 97 94 90 94 97 97 97 97 100 100 100 100 90 90 90 90 87 87 81 81 97 94 87 90 87 87 87 81 74 58 52
0 0 0 0 0 0 0 3 3 10 16 26 45 55 74 87 90 90 94 94 97 100 100 100 97 97 100 100 97 97 94 94 90 84 84 87 84 84 87 90 87 87 81 81 65 52 58 61 48
0 0 0 0 0 0 3 10 16 26 23 32 42 45 65 81 87 90 90 90 94 97 100 100 100 100 100 97 94 94 94 87 87 84 87 77 81 77 84 81 77 68 74 68 48 39 39 35 35
0 0 0 0 0 3 3 10 19 23 32 39 45 45 55 68 68 77 81 84 90 94 97 97 100 100 97 94 94 90 87 84 77 71 68 61 65 68 68 58 55 52 45 35 26 19 13 13 3
0 0 0 0 0 3 6 16 19 29 42 45 39 58 61 55 58 61 65 74 81 87 84 94 94 97 94 94 94 84 81 55 52 52 52 42 42 42 39 39 23 23 23 19 26 16 10 6 3
0 0 0 0 0 6 10 16 29 26 29 35 42 42 45 45 42 52 58 58 65 71 74 81 84 84 87 87 84 77 61 42 29 29 19 23 16 19 23 13 13 13 13 10 6 6 3 3 0
0 0 0 3 0 0 0 6 29 35 29 35 39 45 35 35 35 29 42 39 52 52 61 65 74 68 74 77 81 68 58 35 23 19 13 10 6 3 3 3 6 6 3 3 3 0 0 0 0
0 0 0 3 0 0 0 0 26 35 29 26 26 29 23 23 23 16 19 16 19 32 35 45 52 52 58 65 58 55 42 23 13 13 6 3 3 3 3 0 0 0 0 0 0 0 0 0 0
0 0 0 0 0 0 0 0 16 29 32 16 19 16 19 19 10 3 3 3 10 10 16 23 29 29 32 32 29 23 16 13 10 6 6 3 0 0 0 0 0 0 0 0 0 0 0 0 0
0 0 0 0 0 0 0 0 32 29 23 19 10 10 6 6 6 3 3 3 3 3 6 6 6 6 10 10 6 13 10 10 3 3 0 0 0 0 0 0 0 0 0 0 0 0 0 0 0
0 0 0 0 0 0 0 0 39 19 16 16 13 10 6 6 3 3 3 3 3 3 3 3 6 6 3 0 3 3 3 3 3 0 0 0 0 0 0 0 0 0 0 0 0 0 0 0 0
0 0 0 0 0 0 0 26 32 19 13 13 10 6 3 0 0 0 0 0 0 0 0 0 0 0 0 0 0 0 0 0 0 0 0 0 0 0 0 0 0 0 0 0 0 0 0 0 0
0 0 0 0 0 0 0 6 26 32 13 6 3 6 0 0 0 0 0 0 0 0 0 0 0 0 0 0 0 0 0 0 0 0 0 0 0 0 0 0 0 0 0 0 0 0 0 0 0
0 0 0 0 0 0 0 3 13 48 32 6 6 3 0 0 0 0 0 0 0 0 0 0 0 0 0 0 0 0 0 0 0 0 0 0 0 0 0 0 0 0 0 0 0 0 0 0 0
0 0 0 0 0 0 0 19 48 55 52 13 10 3 0 0 0 0 0 0 0 0 0 0 0 0 0 0 0 0 0 0 0 0 0 0 0 0 0 0 0 0 0 0 0 0 0 0 0

GEFSSGP_con_cape1000_078.txt.gz
Probability
0 0 0 0 0 0 0 0 0 0 0 0 0 0 0 3 23 68 77 84 100 100 97 100 100 100 100 100 100 100 100 100 100 100 100 100 100 100 100 100 100 100 100 100 100 100 100 100 100
0 0 0 0 0 0 0 0 0 0 0 0 0 0 3 29 39 61 87 100 100 100 97 100 100 100 100 100 100 100 100 100 100 100 100 100 100 100 100 100 100 100 100 100 100 100 100 100 100
0 0 0 0 0 0 0 0 0 0 0 0 0 0 6 42 55 90 94 100 100 100 100 100 100 100 100 100 100 100 100 100 100 100 100 100 100 100 100 100 100 100 100 100 100 100 100 97 97
0 0 0 0 0 0 0 0 0 0 0 0 0 0 35 32 74 94 97 100 100 100 100 100 100 100 100 100 100 100 100 100 100 100 100 100 100 100 100 100 100 100 97 94 94 90 94 94 90
0 0 0 0 0 0 0 0 0 0 0 0 0 19 58 65 84 94 100 100 100 100 100 100 100 100 100 100 100 100 100 100 100 100 100 100 100 100 100 100 97 94 90 87 84 81 77 74 74
0 0 0 0 0 0 0 0 0 0 0 0 3 26 68 84 94 97 97 100 100 100 100 100 100 100 100 100 100 100 100 100 100 100 100 100 100 100 100 100 97 87 87 81 71 68 61 52 58
0 0 0 0 0 0 0 0 0 0 0 0 0 23 61 77 94 97 97 97 100 100 100 100 100 100 100 100 100 100 100 100 100 100 100 100 100 100 100 100 87 87 81 65 55 45 39 39 39
0 0 0 0 0 0 0 0 0 0 0 0 0 16 55 84 90 97 97 97 97 100 100 97 100 100 100 100 100 100 100 100 100 100 100 100 100 100 100 97 94 81 74 52 42 35 39 35 39
0 0 0 0 0 0 0 0 0 0 0 0 6 29 55 71 84 94 100 97 97 100 97 84 94 100 94 94 100 100 100 100 100 100 100 100 97 97 97 97 90 77 71 61 58 52 52 55 58
0 0 0 0 0 0 0 0 0 0 0 0 10 42 58 68 74 94 97 94 94 97 94 84 97 97 97 87 97 100 87 100 94 100 100 100 100 100 100 100 100 94 84 77 74 77 74 65 42
0 0 0 0 0 0 0 0 0 0 0 0 10 29 58 74 77 87 90 94 87 94 100 94 100 100 100 100 90 100 100 100 100 100 100 100 100 100 100 100 94 97 90 74 81 74 68 52 45
0 0 0 0 0 0 0 0 0 0 0 0 6 23 42 61 81 84 90 87 87 90 97 100 100 100 100 100 100 100 100 100 100 100 100 100 100 100 100 100 100 97 90 94 87 84 74 71 58
0 0 0 0 0 0 0 0 0 0 0 0 6 13 32 48 71 81 84 90 87 90 94 100 100 100 100 100 100 100 100 100 100 100 100 97 97 97 97 100 100 94 94 94 94 90 81 71 58
0 0 0 0 0 0 0 0 0 0 0 0 6 13 29 48 65 81 87 87 90 94 97 100 100 100 100 100 100 100 100 100 100 100 97 94 97 97 100 100 100 100 97 94 94 94 87 87 84
0 0 0 0 0 0 0 0 0 0 0 0 10 16 35 42 61 77 90 90 94 97 100 100 100 100 100 100 100 100 100 100 100 97 97 97 94 100 100 100 97 94 94 97 97 94 90 84 74
0 0 0 0 0 0 0 0 3 3 6 6 13 19 39 52 68 68 84 94 97 94 100 100 97 100 100 100 100 100 100 100 100 97 97 97 94 90 90 90 94 94 94 90 90 77 71 68 58
0 0 0 0 0 0 0 3 6 6 6 13 29 45 42 48 58 68 84 94 100 100 100 100 100 100 100 100 100 94 94 90 90 94 90 90 84 87 87 87 87 87 84 77 77 77 68 55 39
0 0 0 0 0 0 3 6 6 10 16 35 26 35 48 58 68 77 87 90 97 97 100 100 100 97 97 94 94 94 90 90 87 87 87 87 87 87 84 74 77 77 68 71 71 61 61 48 23
0 0 0 3 3 3 6 6 19 32 32 42 42 39 52 55 65 74 77 84 87 90 90 90 94 94 90 94 94 94 87 84 77 68 55 58 58 58 68 68 55 55 45 45 39 39 16 10 10
0 0 0 3 3 3 10 23 35 45 42 42 32 35 48 48 61 61 65 68 68 77 81 81 84 84 87 90 87 84 84 77 58 45 35 35 39 42 35 39 35 29 35 26 26 26 13 10 6
0 0 0 3 3 3 6 13 29 32 35 29 26 35 48 55 55 55 48 58 58 58 65 71 74 74 77 84 87 87 77 58 35 26 19 13 13 16 16 19 16 16 13 13 3 10 3 3 0
0 0 0 3 3 0 0 0 16 32 32 32 42 42 45 45 42 39 35 42 42 45 45 45 55 61 65 81 84 81 71 42 19 13 10 6 6 6 6 6 3 3 3 0 0 0 0 0 0
0 0 0 0 0 0 0 0 16 35 29 39 35 26 39 39 29 26 26 26 26 26 26 32 32 39 39 45 65 52 29 13 13 10 6 3 3 3 3 3 3 0 0 0 0 0 0 0 0
0 0 0 0 0 0 0 0 6 32 26 32 19 19 23 19 23 19 16 16 13 13 19 26 16 16 16 23 29 16 13 10 10 6 3 3 3 3 3 0 0 0 0 0 0 0 0 0 0
0 0 0 0 0 0 0 0 19 35 26 19 19 10 13 13 13 13 13 13 13 13 13 10 13 13 10 6 3 6 6 3 3 3 3 3 3 3 0 0 0 0 0 0 0 0 0 0 0
0 0 0 0 0 0 0 3 48 35 32 32 16 10 10 10 10 10 6 3 3 3 3 3 3 3 3 3 3 3 0 0 0 0 0 0 0 0 0 0 0 0 0 0 0 0 0 0 0
0 0 0 0 0 0 0 29 39 35 23 16 10 10 10 10 6 3 3 3 3 3 3 3 3 3 3 0 0 0 0 0 0 0 0 0 0 0 0 0 0 0 0 0 0 0 0 0 0
0 0 0 0 0 0 0 6 19 26 19 13 10 10 6 0 0 0 0 0 0 0 0 0 0 0 0 0 0 0 0 0 0 0 0 0 0 0 0 0 0 0 0 0 0 0 0 0 0
0 0 0 0 0 0 0 0 6 29 23 16 10 6 0 0 0 0 0 0 0 0 0 0 0 0 0 0 0 0 0 0 0 0 0 0 0 0 0 0 0 0 0 0 0 0 0 0 0
0 0 0 0 0 0 0 3 16 32 19 10 3 0 0 0 0 0 0 0 0 0 0 0 0 0 0 0 0 0 0 0 0 0 0 0 0 0 0 0 0 0 0 0 0 0 0 0 0

GEFSSGP_con_cape1000_084.txt.gz
Probability
0 0 0 0 0 0 0 0 0 0 0 0 0 0 0 6 13 13 19 55 77 100 100 100 100 100 100 100 100 100 100 100 100 100 100 100 100 100 100 100 100 100 100 100 100 100 100 100 100
0 0 0 0 0 0 0 0 0 0 0 0 0 3 10 32 52 71 71 81 77 100 100 100 100 100 100 100 100 100 100 100 100 100 100 100 100 100 100 100 100 100 100 100 100 100 100 100 100
0 0 0 0 0 0 0 0 0 0 0 0 0 6 19 55 81 81 81 81 87 97 97 100 100 100 100 100 100 100 100 100 100 100 100 100 100 100 100 100 100 100 100 100 100 94 94 94 94
0 0 0 0 0 0 0 0 0 0 0 0 0 13 29 58 77 90 94 94 90 90 94 100 100 100 100 100 100 100 100 100 100 100 100 100 100 100 100 100 100 100 100 100 94 94 94 94 94
0 0 0 0 0 0 0 0 0 0 0 0 6 26 32 61 84 94 97 94 90 90 97 100 100 100 100 100 100 100 100 100 100 100 100 100 100 100 100 100 100 97 94 94 81 77 77 77 74
0 0 0 0 0 0 0 0 0 0 0 0 6 26 48 58 77 90 97 94 90 90 100 100 100 100 100 100 100 100 100 100 100 100 100 100 100 100 100 100 100 94 90 81 71 68 68 55 58
0 0 0 0 0 0 0 0 0 0 0 0 10 26 42 71 84 90 97 97 100 97 100 100 100 100 100 100 100 100 100 100 100 100 100 100 100 100 100 100 94 90 84 77 74 61 61 55 55
0 0 0 0 0 0 0 0 0 0 0 0 13 26 55 68 77 90 97 100 100 97 100 100 100 100 100 100 100 100 100 100 100 100 100 100 100 100 100 100 97 87 87 74 74 68 61 58 52
0 0 0 0 0 0 0 0 0 0 0 6 16 26 48 65 74 97 97 100 100 100 100 100 100 100 100 100 100 100 100 100 100 100 100 100 100 100 100 97 97 94 87 81 77 68 65 68 65
0 0 0 0 0 0 0 0 0 0 3 13 19 29 58 68 68 90 97 100 100 100 97 97 97 97 100 100 100 100 100 100 100 100 100 94 74 77 97 97 100 97 97 90 87 77 71 65 35
0 0 0 0 0 0 0 0 0 0 3 6 23 35 52 55 68 84 87 90 90 97 97 94 90 90 84 90 97 90 90 90 74 90 90 65 39 42 77 71 100 94 94 65 61 71 61 42 16
0 0 0 0 0 0 0 0 0 0 0 3 26 32 42 52 61 77 84 81 84 77 87 87 84 71 65 71 71 55 55 55 39 52 52 23 16 32 29 42 58 48 45 29 13 6 19 19 13
0 0 0 0 0 0 0 0 0 6 10 13 29 39 48 45 55 74 74 77 68 65 74 84 61 58 52 48 52 55 42 35 26 45 42 6 16 29 23 26 23 13 10 3 6 6 10 6 3
0 0 0 0 0 0 0 0 3 6 19 23 26 26 35 35 35 52 58 61 61 42 55 58 48 45 48 48 52 52 39 26 29 61 58 39 23 16 16 13 10 6 13 13 6 6 3 3 3
0 0 0 0 0 0 0 6 6 10 23 16 19 19 29 23 29 52 55 55 45 39 48 58 58 48 45 45 52 61 68 39 26 55 55 52 32 19 16 19 13 3 3 13 10 6 6 6 3
0 0 0 0 0 0 6 6 10 10 10 13 16 23 19 19 19 39 45 48 45 48 55 55 71 65 61 48 48 68 61 52 48 48 39 32 35 19 16 19 23 6 10 6 6 3 0 0 0
0 0 0 0 0 0 6 6 16 10 16 13 16 16 16 19 19 32 35 39 35 35 48 55 74 74 61 55 55 61 58 45 45 42 39 42 35 29 19 23 10 6 6 6 6 3 0 3 3
0 0 0 0 0 0 6 13 23 23 23 23 19 26 26 26 16 26 29 26 29 32 45 61 55 52 58 58 58 48 35 35 23 19 19 19 26 29 13 6 6 3 3 3 3 3 0 0 0
0 0 0 0 3 3 3 10 26 29 19 23 29 23 16 19 16 23 26 26 29 35 39 39 48 55 55 65 48 35 26 23 19 16 13 10 13 13 6 10 3 3 3 3 3 0 0 0 0
0 0 0 0 3 3 6 16 26 23 32 32 29 16 16 10 13 13 16 16 19 23 26 26 32 39 48 42 32 23 23 19 13 6 3 3 6 6 3 0 0 0 0 0 0 0 0 0 0
0 0 0 0 0 0 3 10 13 26 32 29 26 26 16 16 16 16 19 16 16 16 19 23 23 26 26 19 19 23 19 13 10 3 3 3 3 3 3 0 0 0 0 0 0 0 0 0 0
0 0 0 0 0 0 0 0 3 13 26 23 16 23 23 19 13 13 10 10 13 16 19 19 23 23 19 13 6 13 16 10 6 3 3 3 3 3 3 3 0 0 0 0 0 0 0 0 0
0 0 0 0 0 0 0 0 3 6 16 16 16 19 13 13 13 13 10 10 10 10 10 10 10 13 10 10 6 3 0 3 3 3 3 3 3 3 3 0 0 0 0 0 0 0 0 0 0
0 0 0 0 0 0 0 0 3 3 10 23 13 10 6 6 6 3 3 10 10 10 10 10 10 10 6 0 0 0 0 0 3 3 3 0 0 0 0 0 0 0 0 0 0 0 0 0 0
0 0 0 0 0 0 0 0 0 10 10 13 6 3 0 3 6 6 3 6 10 10 10 6 10 3 3 0 0 0 0 0 0 3 0 0 0 0 0 0 0 0 0 0 0 0 0 0 0
0 0 0 0 0 0 0 0 6 16 13 10 0 0 0 0 0 0 0 3 3 3 6 3 3 3 3 0 0 0 0 0 0 0 0 0 0 0 0 0 0 0 0 0 0 0 0 0 0
0 0 0 0 0 0 0 3 19 16 6 6 3 3 3 3 0 0 0 3 3 3 3 3 3 3 3 3 0 0 0 0 0 0 0 0 0 0 0 0 0 0 0 0 0 0 0 0 0
0 0 0 0 0 0 0 0 0 16 6 6 3 3 3 0 0 0 0 0 0 0 0 0 0 0 0 0 0 0 0 0 0 0 0 0 0 0 0 0 0 0 0 0 0 0 0 0 0
0 0 0 0 0 0 0 0 0 6 6 3 3 0 0 0 0 0 0 0 0 0 0 0 0 0 0 0 0 0 0 0 0 0 0 0 0 0 0 0 0 0 0 0 0 0 0 0 0
0 0 0 0 0 0 0 0 0 3 3 3 0 0 0 0 0 0 0 0 0 0 0 0 0 0 0 0 0 0 0 0 0 0 0 0 0 0 0 0 0 0 0 0 0 0 0 0 0

GEFSSGP_con_cape1000_090.txt.gz
Probability
0 0 0 0 0 0 0 0 0 0 0 0 0 0 0 0 3 3 10 32 65 90 97 100 100 100 100 100 100 100 100 100 100 100 100 100 100 100 100 100 100 100 100 100 100 100 100 100 100
0 0 0 0 0 0 0 0 0 0 0 0 0 3 3 13 19 26 42 61 84 94 100 100 100 100 100 100 100 100 100 100 100 100 100 100 100 100 100 100 100 100 100 100 100 100 100 100 100
0 0 0 0 0 0 0 0 0 0 0 0 0 6 6 16 29 52 65 68 84 97 100 100 100 100 100 100 100 100 100 100 100 100 100 100 100 100 100 100 100 100 100 100 100 97 97 97 97
0 0 0 0 0 0 0 0 0 0 0 0 0 13 23 29 52 65 74 68 90 100 100 100 100 100 100 100 100 100 100 100 100 100 100 100 100 100 100 100 100 100 100 100 94 94 94 94 94
0 0 0 0 0 0 0 0 0 0 0 3 13 16 26 42 61 77 74 77 94 97 100 100 100 100 100 100 100 100 100 100 100 100 100 100 100 100 100 100 100 100 100 97 94 87 90 87 90
0 0 0 0 0 0 0 0 0 0 0 0 6 16 29 61 71 81 81 77 90 97 100 100 100 100 100 100 100 100 100 100 100 100 100 100 100 100 100 100 100 97 94 90 74 74 74 77 74
0 0 0 0 0 0 0 0 0 0 0 0 6 26 39 74 74 84 81 94 94 97 100 100 100 100 100 100 100 100 100 100 100 100 100 100 100 100 100 100 97 94 84 74 71 71 68 61 61
0 0 0 0 0 0 0 0 0 0 0 0 13 26 42 71 77 81 94 94 97 100 100 100 100 100 100 100 100 100 100 100 100 100 100 100 100 100 97 100 94 84 77 77 74 65 68 61 68
0 0 0 0 0 0 0 0 0 0 0 0 10 29 45 71 81 90 97 97 97 97 97 100 100 100 100 100 100 100 100 100 100 100 100 100 100 97 97 97 90 81 81 74 74 74 77 77 77
0 0 0 0 0 0 0 0 0 0 0 0 26 45 58 81 90 87 87 87 87 94 94 94 97 100 100 100 100 100 100 100 100 100 100 94 77 84 94 87 90 90 84 87 87 81 74 55 26
0 0 0 0 0 0 0 0 0 0 0 3 19 45 65 81 81 84 87 87 87 94 94 94 97 97 97 94 100 100 97 97 97 100 94 74 52 48 61 55 68 77 84 65 58 52 42 19 13
0 0 0 0 0 0 0 0 0 0 3 10 23 48 61 81 81 87 90 94 90 90 90 94 90 90 84 90 94 94 90 87 77 77 71 48 39 35 32 16 32 42 42 45 29 23 19 10 10
0 0 0 0 0 0 0 0 3 10 10 29 35 48 71 68 74 87 90 87 77 74 77 81 84 74 71 77 81 84 71 68 58 61 61 42 35 32 23 6 16 29 19 19 13 13 10 10 10
0 0 0 0 0 0 0 3 6 6 19 23 39 42 55 68 77 81 71 74 68 65 71 74 74 61 65 65 61 55 52 48 45 45 48 45 19 16 10 3 10 10 10 10 6 10 3 3 6
0 0 0 0 0 0 0 3 3 10 10 23 39 35 42 52 68 68 61 58 48 48 52 58 61 58 42 48 39 35 35 26 26 26 26 39 13 6 3 0 6 10 3 3 6 3 3 3 3
0 0 0 0 0 0 0 0 6 10 10 16 23 39 42 39 48 52 48 39 42 42 48 45 58 42 35 32 29 26 23 13 6 13 16 23 16 3 6 3 6 6 3 3 3 3 3 3 3
0 0 0 0 0 0 0 0 6 6 16 16 19 26 26 29 32 32 29 32 29 26 29 29 29 26 29 23 19 13 13 6 6 6 3 6 16 6 6 6 6 3 3 3 3 3 3 3 0
0 0 0 0 0 0 3 16 23 16 23 26 26 26 23 19 23 19 19 29 26 26 26 29 19 16 16 13 10 3 6 0 0 0 0 3 3 10 3 6 3 3 3 3 3 3 0 0 0
0 0 0 0 0 6 6 19 23 16 19 23 23 23 23 16 13 19 16 16 16 19 19 19 16 6 3 3 3 0 0 0 0 0 0 0 0 3 3 0 0 0 0 0 0 0 0 0 0
0 0 0 0 0 0 3 16 16 16 19 19 16 19 19 19 13 13 16 13 16 16 6 10 10 10 3 3 0 0 0 0 0 0 0 0 3 0 0 0 0 0 0 0 0 0 0 0 0
0 0 0 0 0 0 0 0 13 16 13 13 10 13 16 19 19 10 6 6 13 13 10 16 13 6 6 3 0 0 0 0 0 0 0 0 3 0 0 0 0 0 0 0 0 0 0 0 0
0 0 0 0 0 0 0 0 0 16 13 16 19 19 23 16 16 13 10 6 6 10 10 13 6 6 3 0 0 0 3 3 0 0 0 0 0 3 0 0 0 0 0 0 0 0 0 0 0
0 0 0 0 0 0 0 0 0 13 13 16 16 19 16 13 10 10 10 10 10 10 6 13 3 6 3 3 0 0 0 0 0 0 0 0 0 0 0 0 0 0 0 0 0 0 0 0 0
0 0 0 0 0 0 0 0 0 0 0 13 19 16 16 3 3 3 3 10 10 10 10 13 10 10 3 3 0 0 0 0 0 0 0 0 0 0 0 0 0 0 0 0 0 0 0 0 0
0 0 0 0 0 0 0 0 0 3 3 10 13 13 10 6 0 0 3 3 3 10 13 6 6 3 0 0 0 0 0 0 0 0 0 0 0 0 0 0 0 0 0 0 0 0 0 0 0
0 0 0 0 0 0 0 0 6 16 10 3 6 6 6 3 0 0 0 0 0 0 0 3 3 3 0 0 0 0 0 0 0 0 0 0 0 0 0 0 0 0 0 0 0 0 0 0 0
0 0 0 0 0 0 0 0 10 23 13 6 0 3 0 0 0 0 0 0 0 0 0 0 3 3 3 0 0 0 0 0 0 0 0 0 0 0 0 0 0 0 0 0 0 0 0 0 0
0 0 0 0 0 0 0 0 0 10 10 6 6 10 0 0 0 0 0 0 0 0 0 3 3 3 0 0 0 0 0 0 0 0 0 0 0 0 0 0 0 0 0 0 0 0 0 0 0
0 0 0 0 0 0 0 0 0 0 3 6 6 0 0 0 0 0 0 0 0 0 0 0 0 0 0 0 0 0 0 0 0 0 0 0 0 0 0 0 0 0 0 0 0 0 0 0 0
0 0 0 0 0 0 0 0 0 0 3 6 0 0 0 0 0 0 0 0 0 0 0 0 0 0 0 0 0 0 0 0 0 0 0 0 0 0 0 0 0 0 0 0 0 0 0 0 0

GEFSSGP_con_cape1000_096.txt.gz
Probability
0 0 0 0 0 0 0 0 0 0 0 0 0 0 0 0 0 23 77 90 77 94 100 100 100 100 100 100 100 100 100 100 100 100 100 100 100 100 100 100 100 100 100 100 100 100 100 100 100
0 0 0 0 0 0 0 0 0 0 0 0 0 0 3 10 16 58 81 94 90 94 100 97 100 100 100 100 100 100 100 100 100 100 100 100 100 100 100 100 100 100 100 100 100 100 100 100 100
0 0 0 0 0 0 0 0 0 0 0 0 0 0 3 19 32 65 84 90 94 97 100 100 100 100 100 100 100 100 100 100 100 100 100 100 100 100 100 100 100 100 100 100 100 100 100 100 100
0 0 0 0 0 0 0 0 0 0 0 0 0 3 10 39 45 84 94 94 90 97 97 100 100 100 100 100 100 100 100 100 100 100 100 100 100 100 100 100 100 100 100 100 100 97 97 97 97
0 0 0 0 0 0 0 0 0 0 0 0 0 3 6 52 61 84 94 97 100 97 97 100 100 100 100 100 100 100 100 100 100 100 100 100 100 100 100 100 100 100 100 100 94 94 90 94 94
0 0 0 0 0 0 0 0 0 0 0 0 0 3 13 65 68 94 97 100 94 94 97 100 100 100 100 100 100 100 100 100 100 100 100 100 100 100 100 100 100 100 100 87 81 81 77 74 77
0 0 0 0 0 0 0 0 0 0 0 0 3 3 19 65 77 94 94 97 90 90 97 100 100 100 100 100 100 100 100 100 100 100 100 100 100 100 100 100 100 97 94 77 68 71 74 68 65
0 0 0 0 0 0 0 0 0 0 0 0 3 6 10 65 81 90 97 97 94 90 97 100 100 100 100 100 100 100 100 100 100 100 100 100 100 100 100 97 97 90 77 71 74 68 61 61 68
0 0 0 0 0 0 0 0 0 0 0 3 3 10 29 71 81 94 94 97 100 97 100 100 100 100 100 100 100 97 97 97 97 100 100 100 87 81 94 71 84 77 77 77 71 74 71 74 71
0 0 0 0 0 0 0 0 0 0 0 3 6 23 45 77 84 90 90 97 100 100 97 100 100 100 100 97 97 97 90 90 90 87 87 87 94 90 74 81 84 77 81 81 81 81 77 48 48
0 0 0 0 0 0 0 0 0 0 0 0 13 10 48 71 87 87 94 97 97 100 97 97 100 100 100 100 100 97 94 94 94 90 94 90 90 84 77 81 90 94 84 71 90 77 48 23 29
0 0 0 0 0 0 0 0 0 0 3 10 13 19 39 61 77 84 94 90 97 100 100 94 97 100 97 97 100 97 97 94 94 94 94 94 90 90 84 87 74 77 84 87 61 65 35 42 42
0 0 0 0 0 0 0 0 0 3 6 13 26 26 45 61 65 74 94 97 100 100 90 90 90 94 97 97 97 94 94 90 87 90 87 90 87 94 90 94 94 71 77 90 74 58 65 55 42
0 0 0 0 0 0 0 0 0 3 6 23 26 32 45 55 58 58 87 90 90 90 87 90 90 87 90 94 90 87 84 84 81 81 74 77 87 97 97 97 100 87 84 74 77 61 81 74 61
0 0 0 0 0 0 0 0 0 10 16 16 23 26 35 45 55 61 74 77 81 81 81 81 81 87 87 90 87 81 84 84 81 74 81 81 87 90 94 100 90 87 90 90 87 77 81 81 61
0 0 0 0 0 0 0 0 10 16 19 16 16 26 32 48 52 61 65 71 71 71 77 81 71 81 90 90 81 74 68 68 65 71 71 74 77 77 77 77 77 84 84 87 90 84 84 68 52
0 0 0 0 0 0 0 3 10 19 19 16 16 26 32 52 55 55 61 68 74 71 74 74 77 74 84 84 81 68 68 65 68 68 68 61 58 68 68 71 77 77 84 81 68 81 68 58 45
0 0 0 0 3 0 3 10 16 26 23 16 16 23 42 42 45 48 45 55 65 68 71 68 61 68 61 68 71 68 61 52 48 48 48 55 55 55 58 61 68 65 74 68 65 68 65 48 42
0 0 0 3 3 6 6 10 19 29 29 26 23 32 32 35 45 45 52 52 55 55 58 61 61 61 68 58 55 42 42 39 29 32 35 35 39 39 42 42 45 48 52 52 42 45 35 23 13
0 0 0 6 6 6 6 13 19 29 32 29 26 26 39 35 42 42 39 42 45 48 55 48 52 45 42 52 48 42 26 19 19 23 26 23 23 29 23 23 29 26 35 29 32 29 23 10 3
0 0 0 6 6 6 3 10 32 13 23 19 23 23 29 29 39 35 35 32 35 42 39 39 42 42 42 42 32 23 19 19 13 13 13 13 13 13 13 10 6 16 13 23 23 16 16 10 0
0 0 0 0 3 3 0 3 16 23 13 19 29 35 29 29 32 35 32 26 29 32 35 35 39 35 35 32 29 16 13 16 16 10 10 10 10 10 10 13 10 6 10 13 3 0 3 0 0
0 0 0 0 0 0 0 0 3 10 10 16 32 35 29 32 35 35 32 23 23 23 26 32 29 35 26 29 26 19 13 13 10 6 6 6 6 10 6 0 3 3 0 0 0 0 0 0 0
0 0 0 0 0 0 0 0 3 13 16 13 26 29 35 32 29 23 19 23 23 23 23 26 19 16 19 19 23 16 10 6 6 6 3 0 0 0 0 0 3 3 3 3 3 0 0 0 0
0 0 0 0 0 0 0 0 6 19 23 23 32 35 29 29 23 19 16 16 19 23 19 23 19 13 13 13 10 10 10 6 6 6 0 0 0 0 0 0 0 3 3 0 0 0 0 0 0
0 0 0 0 0 0 0 0 23 23 29 32 32 26 23 19 13 13 13 10 13 16 19 19 16 10 10 6 10 6 6 6 6 6 0 0 0 0 0 0 0 0 0 0 0 0 0 0 0
0 0 0 0 0 0 0 0 19 29 29 32 35 13 19 13 6 3 3 3 3 6 6 10 6 10 6 3 3 3 6 3 3 0 0 0 0 0 0 0 0 0 0 0 0 0 0 0 0
0 0 0 0 0 0 0 0 0 23 29 32 26 16 19 13 3 3 3 3 3 6 6 3 3 3 3 3 3 3 0 3 3 0 0 0 0 0 0 0 0 0 0 0 0 0 0 0 0
0 0 0 0 0 0 0 0 13 29 39 32 23 16 13 3 0 0 3 3 3 3 3 3 3 3 3 3 3 3 0 0 0 0 0 0 0 0 0 0 0 0 0 0 0 0 0 0 0
0 0 0 0 0 0 0 0 16 35 39 32 19 13 6 0 0 0 0 0 0 0 0 3 3 3 3 3 3 0 0 0 0 0 0 0 0 0 0 0 0 0 0 0 0 0 0 0 0

GEFSSGP_con_cape1000_102.txt.gz
Probability
0 0 0 0 0 0 0 0 0 0 0 0 0 0 0 6 13 45 74 55 94 100 100 100 100 100 100 100 100 100 100 100 100 100 100 100 100 100 100 100 100 100 100 100 100 100 100 100 100
0 0 0 0 0 0 0 0 0 0 0 0 0 0 0 3 16 45 68 84 100 100 100 100 100 100 100 100 100 100 100 100 100 100 100 100 100 100 100 100 100 100 100 100 100 100 100 100 100
0 0 0 0 0 0 0 0 0 0 0 0 0 0 3 6 19 58 90 94 100 100 100 100 100 100 100 100 100 100 100 100 100 100 100 100 100 100 100 100 100 100 100 100 100 100 100 100 100
0 0 0 0 0 0 0 0 0 0 0 0 0 3 6 19 23 65 87 94 100 100 100 100 100 100 100 100 100 100 100 100 100 100 100 100 100 100 100 100 100 100 100 100 100 100 100 97 94
0 0 0 0 0 0 0 0 0 0 0 0 0 6 16 32 48 74 90 97 100 100 100 100 100 100 100 100 100 100 100 100 100 100 100 100 100 100 100 100 100 100 100 100 100 97 97 97 94
0 0 0 0 0 0 0 0 0 0 0 0 0 10 29 42 65 71 84 97 97 97 100 100 100 100 100 100 100 100 100 100 100 100 100 100 100 100 100 100 100 100 100 100 94 90 84 84 84
0 0 0 0 0 0 0 0 0 0 0 0 0 10 35 52 68 74 77 90 97 97 100 100 100 100 100 100 100 100 100 100 100 100 100 100 100 100 100 100 100 100 100 87 81 81 74 71 71
0 0 0 0 0 0 0 0 0 0 0 0 0 6 32 58 71 71 81 94 97 100 100 97 97 100 100 100 100 100 100 100 100 100 100 100 100 100 100 100 100 100 90 87 77 74 71 71 71
0 0 0 0 0 0 0 0 0 0 0 0 6 19 39 61 68 77 81 94 97 97 94 94 94 100 100 100 100 100 100 100 100 100 100 97 97 97 97 94 94 84 84 81 77 81 81 74 74
0 0 0 0 0 0 0 0 0 0 0 0 13 19 42 55 65 74 81 87 94 94 90 77 81 84 90 94 100 100 97 97 97 94 97 94 97 97 94 90 97 81 77 77 81 84 81 71 58
0 0 0 0 0 0 0 0 0 0 0 3 10 26 32 48 68 71 87 77 84 87 97 90 90 87 81 94 97 97 90 97 90 90 90 94 94 90 81 71 71 81 74 77 81 81 71 52 58
0 0 0 0 0 0 0 0 0 0 3 13 13 23 42 42 52 68 77 81 74 81 84 81 84 90 87 94 90 94 90 90 81 87 87 87 90 81 74 71 65 74 65 81 77 74 52 52 55
0 0 0 0 0 0 0 0 0 3 10 10 19 29 32 32 39 58 68 71 74 74 77 81 74 77 84 84 87 84 87 84 81 87 74 71 65 65 61 65 58 61 65 77 87 84 65 58 45
0 0 0 0 0 0 0 0 0 6 10 19 19 26 26 32 39 55 71 71 68 65 77 77 87 84 90 87 84 84 74 81 84 68 65 61 61 52 52 52 61 68 74 65 81 94 90 84 87
0 0 0 0 0 0 0 0 3 10 10 13 16 26 23 39 42 52 61 71 74 68 74 81 81 81 87 87 84 84 71 77 74 55 55 52 52 45 45 45 45 65 71 74 77 81 87 84 81
0 0 0 0 0 0 0 3 3 6 13 13 16 19 26 39 35 52 55 68 77 74 74 77 71 71 81 77 74 77 68 65 65 61 55 55 45 45 45 48 48 58 68 71 68 74 77 77 71
0 0 0 0 0 0 0 0 6 6 10 23 29 23 29 29 45 55 58 68 74 71 71 71 71 68 71 77 74 68 71 65 52 52 58 52 48 45 39 45 48 55 61 61 58 61 65 55 52
0 0 0 0 0 0 0 0 6 6 16 13 26 26 26 26 39 61 65 61 71 74 71 68 68 71 68 61 71 68 61 55 45 39 42 52 52 45 45 45 48 52 52 55 48 52 45 42 39
0 0 0 0 0 3 3 3 13 13 16 13 29 29 32 29 39 58 58 58 65 65 65 65 65 65 58 61 65 58 48 39 35 35 32 35 35 42 42 45 48 48 39 32 42 35 19 23 19
0 0 0 0 0 3 3 3 13 16 16 13 29 29 35 39 48 52 52 48 52 55 55 58 55 52 55 55 58 52 35 32 32 35 19 29 29 26 23 42 39 42 39 29 29 19 19 10 10
0 0 0 0 0 0 0 0 3 16 13 26 32 29 29 32 35 35 42 42 35 35 45 48 52 48 58 58 45 32 35 26 23 23 19 26 29 26 26 29 29 26 23 19 10 13 6 6 10
0 0 0 0 0 0 0 0 0 10 13 16 29 19 29 29 29 26 39 39 39 39 39 42 52 52 48 45 39 35 32 23 19 19 13 23 19 19 19 23 23 23 13 13 6 6 3 3 6
0 0 0 0 0 0 0 0 0 6 19 16 26 29 29 29 19 29 29 35 35 39 39 39 45 45 45 39 45 35 26 23 23 16 6 10 13 10 6 10 13 13 6 6 6 6 6 3 6
0 0 0 0 0 0 0 0 0 10 13 32 32 32 26 19 19 26 23 29 32 29 32 35 35 35 32 35 29 23 13 13 10 6 6 6 6 6 6 6 6 6 6 6 6 6 3 3 0
0 0 0 0 0 0 0 0 3 10 13 23 32 29 26 23 23 23 26 29 23 23 23 32 29 29 26 26 16 10 10 10 6 6 6 6 3 3 6 6 6 6 6 6 3 3 0 0 0
0 0 0 0 0 0 0 0 6 23 29 23 26 32 29 16 16 16 16 19 16 16 16 19 26 23 16 16 10 10 10 6 6 6 6 3 0 0 0 0 0 0 0 0 0 3 0 0 0
0 0 0 0 0 0 0 0 3 13 19 16 19 13 13 13 13 10 10 10 13 16 16 16 13 6 3 3 6 6 3 3 3 6 3 0 0 0 0 0 0 0 0 0 0 0 0 0 0
0 0 0 0 0 0 0 0 3 3 10 16 13 13 6 10 10 6 3 6 6 3 10 10 3 3 3 3 3 3 3 3 3 0 0 0 0 0 0 0 0 0 0 0 0 0 0 0 0
0 0 0 0 0 0 0 0 0 3 3 13 16 13 6 6 6 0 0 0 0 0 0 0 3 3 3 3 3 3 3 3 0 0 0 0 0 0 0 0 0 0 0 0 0 0 0 0 0
0 0 0 0 0 0 0 0 0 3 6 13 10 3 3 0 0 0 0 0 0 0 0 0 3 3 3 3 3 3 0 0 0 0 0 0 0 0 0 0 0 0 0 0 0 0 0 0 0

GEFSSGP_con_cape1000_108.txt.gz
Probability
0 0 0 0 0 0 0 0 0 0 0 0 0 0 6 6 0 10 10 45 71 90 97 97 100 100 100 100 100 100 100 100 100 100 100 100 100 100 100 100 100 100 100 100 100 100 100 100 100
0 0 0 0 0 0 0 0 0 0 0 0 0 10 23 32 42 42 42 65 84 94 97 97 100 100 100 100 100 100 100 100 100 100 100 100 100 100 100 100 100 100 100 100 100 100 100 100 100
0 0 0 0 0 0 0 0 0 0 0 3 3 6 29 35 52 55 58 77 87 94 97 97 100 100 100 100 100 100 100 100 100 100 100 100 100 100 100 100 100 100 100 100 100 100 100 100 100
0 0 0 0 0 0 0 0 0 0 0 3 3 10 19 39 42 61 74 81 87 94 97 100 100 100 100 100 100 100 100 100 100 100 100 100 100 100 100 100 100 100 100 100 100 100 100 100 100
0 0 0 0 0 0 0 0 0 0 0 0 0 16 32 35 65 81 74 84 87 94 100 100 100 100 100 100 100 100 100 100 100 100 100 100 100 100 100 100 100 100 100 100 100 100 100 100 100
0 0 0 0 0 0 0 0 0 0 0 3 6 29 35 58 81 77 81 77 84 94 100 100 100 100 100 100 100 100 100 100 100 100 100 100 100 100 100 100 100 100 100 100 100 100 100 97 87
0 0 0 0 0 0 0 0 0 0 3 3 6 29 48 65 65 81 84 84 84 90 90 90 97 100 100 100 100 100 100 100 100 100 100 100 100 100 100 100 100 100 100 100 97 97 90 87 84
0 0 0 0 0 0 0 0 0 0 3 3 13 32 52 55 65 81 81 81 84 84 87 90 90 94 100 100 100 100 100 100 100 100 100 100 97 97 97 97 97 100 100 97 90 90 90 94 77
0 0 0 0 0 0 0 0 0 6 6 6 13 29 55 61 65 61 71 81 84 84 87 84 81 87 90 97 100 100 100 100 97 97 97 97 97 97 97 97 97 97 94 90 90 94 94 90 81
0 0 0 0 0 0 0 0 0 6 16 19 29 52 48 55 61 61 68 77 81 77 71 74 77 81 90 87 90 90 90 94 90 97 97 97 97 94 97 97 97 94 90 87 87 87 84 77 55
0 0 0 0 0 0 3 13 13 13 16 23 26 45 55 58 58 65 68 68 68 65 61 61 61 71 77 81 84 81 81 81 84 87 90 77 71 74 81 77 87 87 84 74 77 74 61 52 19
0 0 0 0 0 0 3 13 13 16 16 23 42 58 58 61 68 65 65 65 58 58 52 48 52 61 68 71 77 74 77 77 77 71 74 58 52 42 39 55 65 58 58 45 35 39 35 23 16
0 0 0 0 0 0 6 13 16 16 19 29 42 45 42 55 61 65 65 52 48 45 45 45 48 48 55 61 61 61 55 58 55 55 58 48 35 32 26 29 32 32 16 13 13 10 10 13 3
0 0 0 0 0 0 6 13 16 13 23 29 39 35 45 55 61 55 58 48 42 45 32 26 42 45 35 39 42 39 35 35 39 42 35 29 26 29 19 16 13 13 16 6 10 10 3 3 0
0 0 0 0 0 0 0 6 10 16 19 19 26 32 29 42 42 45 32 45 48 39 39 29 29 32 29 26 29 26 23 29 29 26 26 19 19 16 16 13 10 10 3 6 6 6 0 0 0
0 0 0 0 0 0 3 3 6 13 10 23 23 32 35 29 35 42 45 42 45 45 32 29 32 26 23 19 19 19 23 23 19 19 19 13 23 16 13 16 10 3 3 3 3 3 0 0 0
0 0 0 0 0 0 0 3 10 10 10 23 29 32 29 16 19 39 42 42 39 39 19 26 19 26 26 26 26 19 19 13 10 10 13 10 16 19 16 16 6 3 3 3 3 0 0 0 0
0 0 0 0 0 0 3 6 10 13 13 16 29 29 26 26 26 29 32 35 32 32 23 29 29 23 16 19 19 19 16 16 10 6 13 10 10 13 10 6 6 6 3 0 0 0 0 0 0
0 0 0 0 0 3 3 10 13 16 13 19 23 19 23 29 29 32 32 35 35 29 32 29 32 26 23 16 16 13 16 16 13 6 3 6 6 6 6 3 3 6 6 3 3 0 0 0 0
0 0 0 0 0 0 3 10 13 13 13 19 29 19 26 26 29 26 26 19 19 26 29 29 35 29 26 23 19 19 10 10 6 3 3 0 0 3 3 3 3 0 3 3 3 0 0 0 0
0 0 0 0 0 0 3 3 10 13 19 26 13 19 23 13 26 19 19 16 19 23 19 23 23 26 23 26 19 13 10 10 6 3 3 0 0 0 0 0 0 0 0 3 0 0 0 0 0
0 0 0 0 0 0 0 0 0 13 19 23 19 16 10 10 13 16 19 16 16 19 23 23 19 19 23 19 16 13 6 6 6 6 3 0 0 0 0 0 0 0 0 0 0 0 0 0 0
0 0 0 0 0 0 0 0 0 6 13 16 16 10 10 10 10 10 10 16 13 13 16 19 16 13 13 6 6 3 6 6 6 6 3 3 0 0 0 0 0 0 0 0 0 0 0 0 0
0 0 0 0 0 0 0 0 0 0 3 10 6 6 6 10 10 10 10 13 13 13 16 16 13 6 6 6 3 3 3 0 6 3 3 0 0 0 0 0 0 0 0 0 0 0 0 0 0
0 0 0 0 0 0 0 0 0 0 3 6 3 6 6 3 3 10 10 10 10 6 10 10 10 6 6 6 6 6 0 0 0 0 0 0 0 0 0 0 0 0 0 0 0 0 0 0 0
0 0 0 0 0 0 0 0 0 0 6 3 10 3 3 3 3 3 3 3 0 3 10 10 6 3 0 0 0 3 3 0 0 0 0 0 0 0 0 0 0 0 0 0 0 0 0 0 0
0 0 0 0 0 0 0 0 3 3 6 3 3 3 3 3 3 3 3 3 0 3 3 0 3 0 0 0 0 0 0 0 0 0 0 0 0 0 0 0 0 0 0 0 0 0 0 0 0
0 0 0 0 0 0 0 0 0 6 6 3 3 0 0 0 0 0 0 0 0 0 0 0 0 0 0 0 0 0 0 0 0 0 0 0 0 0 0 0 0 0 0 0 0 0 0 0 0
0 0 0 0 0 0 0 0 0 3 3 0 0 0 0 0 0 0 0 0 0 0 0 0 3 0 0 0 0 0 0 0 0 0 0 0 0 0 0 0 0 0 0 0 0 0 0 0 0
0 0 0 0 0 0 0 0 3 0 0 0 0 0 0 0 0 0 0 0 0 0 0 0 0 0 0 0 0 0 0 0 0 0 0 0 0 0 0 0 0 0 0 0 0 0 0 0 0

GEFSSGP_con_cape1000_114.txt.gz
Probability
0 0 0 0 0 0 0 0 0 0 0 0 0 0 0 0 0 0 0 45 74 94 97 100 100 100 100 100 100 100 100 100 100 100 100 100 100 100 100 100 100 100 100 100 100 100 100 100 100
0 0 0 0 0 0 0 0 0 0 0 0 3 6 10 16 13 19 45 71 84 94 97 100 100 100 100 100 100 100 100 100 100 100 100 100 100 100 100 100 100 100 100 100 100 100 100 100 100
0 0 0 0 0 0 0 0 0 0 0 0 3 10 19 32 48 42 52 81 81 97 97 97 100 100 100 100 100 100 100 100 100 100 100 100 100 100 100 100 100 100 100 100 100 100 100 100 100
0 0 0 0 0 0 0 0 0 0 0 3 10 26 29 39 58 61 81 84 81 94 97 97 100 100 100 100 100 100 100 100 100 100 100 100 100 100 100 100 100 100 100 100 100 100 100 100 100
0 0 0 0 0 0 0 0 0 0 0 3 13 26 32 58 68 77 87 84 87 90 94 94 97 100 97 100 100 100 100 100 100 100 100 100 100 100 100 100 100 100 100 100 100 100 100 100 100
0 0 0 0 0 0 0 0 0 0 0 3 16 26 35 71 74 81 87 81 84 87 87 97 97 100 100 97 100 100 100 100 100 100 100 100 100 100 100 100 100 100 100 100 100 100 100 100 100
0 0 0 0 0 0 0 0 3 6 6 10 19 29 52 74 77 81 77 74 77 81 87 87 90 97 100 100 100 100 100 100 100 100 100 100 100 100 100 100 100 100 100 100 100 100 100 100 90
0 0 0 0 0 0 0 3 0 6 6 13 26 32 55 74 81 77 74 81 84 84 84 84 87 87 90 97 97 100 100 100 100 100 100 100 100 100 100 100 100 100 100 100 97 97 97 94 94
0 0 0 0 0 0 0 3 0 3 13 16 26 48 65 68 77 74 81 84 84 81 81 81 81 87 87 87 97 97 100 100 100 100 97 97 97 97 97 100 100 97 97 97 97 97 94 90 87
0 0 0 0 0 0 0 10 10 6 13 26 52 68 74 77 81 77 81 77 77 77 74 74 77 84 84 84 84 84 87 87 94 94 94 94 97 97 97 97 97 97 97 94 94 94 90 71 45
0 0 0 0 0 0 3 13 16 10 13 23 55 71 71 77 77 77 81 74 71 68 68 71 77 77 77 74 77 74 74 81 81 87 87 84 84 87 84 87 94 87 87 84 84 84 71 55 39
0 0 0 0 0 3 10 13 13 13 16 26 48 68 74 74 74 74 74 68 65 61 61 61 65 65 65 68 65 68 71 71 68 68 77 71 61 61 61 61 65 71 68 68 65 65 52 39 29
0 0 0 0 0 3 13 13 16 23 29 29 45 68 74 74 65 61 58 58 61 55 52 52 55 55 58 61 61 61 61 61 61 61 61 52 58 58 48 55 55 55 48 48 42 29 26 23 16
0 0 0 3 3 10 10 10 13 26 35 32 48 58 65 58 52 58 55 52 55 48 52 48 45 45 52 55 52 55 58 61 55 61 61 52 42 42 45 32 32 39 23 19 19 13 10 13 16
0 0 0 3 3 6 6 10 16 29 45 42 45 45 45 48 55 58 52 52 48 45 39 39 39 35 35 42 39 39 35 32 39 42 42 42 32 29 26 26 23 26 19 13 6 6 10 10 10
0 0 0 0 3 6 3 3 16 23 39 42 35 39 32 39 39 35 42 45 42 39 39 35 35 29 29 26 23 19 19 19 19 19 19 23 23 16 23 19 16 13 10 6 6 6 6 6 6
0 0 0 0 0 0 3 13 23 19 32 32 29 32 32 39 35 32 26 32 35 35 29 29 23 23 19 19 16 10 10 13 16 16 19 16 13 16 13 10 10 6 6 6 6 6 6 6 6
0 0 0 0 0 3 10 10 16 16 32 26 23 19 19 23 26 26 26 29 23 29 26 19 19 19 16 13 13 6 6 10 6 3 6 6 6 6 6 3 3 3 6 6 6 6 3 3 3
0 0 0 0 0 3 13 10 16 23 26 26 26 19 19 23 16 19 13 23 26 19 19 19 16 13 13 13 10 10 6 10 6 0 0 0 6 6 3 0 3 3 3 3 6 6 3 3 3
0 0 0 0 0 3 6 10 19 26 23 26 23 16 16 16 16 13 10 13 13 16 19 16 16 16 13 13 13 6 6 3 3 3 3 0 3 3 0 0 0 0 3 3 3 0 3 3 0
0 0 0 0 0 3 0 0 10 19 19 23 19 16 13 16 19 13 6 6 6 6 6 6 10 13 16 10 6 0 0 0 3 3 3 3 0 0 0 0 0 0 0 0 0 0 0 0 0
0 0 0 0 0 0 0 0 3 16 23 19 16 13 16 19 16 13 13 6 10 10 10 6 10 10 10 6 6 10 6 3 3 3 3 3 0 0 0 0 0 0 0 0 0 0 0 0 0
0 0 0 0 0 0 0 0 0 10 13 23 10 6 10 6 10 13 10 10 10 10 10 10 10 10 6 6 6 6 6 3 0 0 0 0 0 0 0 0 0 0 0 0 0 0 0 0 0
0 0 0 0 0 0 0 0 0 0 6 10 6 0 0 3 0 3 3 6 10 10 13 10 10 10 6 6 6 6 3 3 3 3 0 0 0 0 0 0 0 0 0 0 0 0 0 0 0
0 0 0 0 0 0 0 0 0 0 3 6 0 3 3 3 3 3 3 6 6 10 10 6 6 6 0 0 0 0 3 3 3 3 0 0 0 0 0 0 0 0 0 0 0 0 0 0 0
0 0 0 0 0 0 0 0 0 3 3 3 3 3 3 3 0 0 3 3 3 6 3 3 0 0 0 0 0 0 0 0 0 0 0 0 0 0 0 0 0 0 0 0 0 0 0 0 0
0 0 0 0 0 0 0 0 0 6 3 3 3 0 0 3 0 0 0 0 0 0 0 0 0 0 0 0 0 0 0 0 0 0 0 0 0 0 0 0 0 0 0 0 0 0 0 0 0
0 0 0 0 0 0 0 0 0 0 3 0 0 0 0 0 0 0 0 0 0 0 0 0 0 0 0 0 0 0 0 0 0 0 0 0 0 0 0 0 0 0 0 0 0 0 0 0 0
0 0 0 0 0 0 0 0 0 0 0 0 0 0 0 0 0 0 0 0 0 0 0 0 0 0 0 0 0 0 0 0 0 0 0 0 0 0 0 0 0 0 0 0 0 0 0 0 0
0 0 0 0 0 0 0 0 0 0 0 0 0 0 0 0 0 0 0 0 0 0 0 0 0 0 0 0 0 0 0 0 0 0 0 0 0 0 0 0 0 0 0 0 0 0 0 0 0

GEFSSGP_con_cape1000_120.txt.gz
Probability
0 0 0 0 0 0 0 0 0 0 0 0 0 0 0 10 16 39 94 97 81 90 94 100 100 100 100 100 100 97 97 97 97 97 97 97 97 100 100 100 100 100 100 100 100 100 100 100 100
0 0 0 0 0 0 0 0 0 0 0 0 6 3 19 26 45 90 97 97 94 94 94 90 100 100 100 100 100 100 97 97 97 97 97 97 97 100 100 100 100 100 100 100 100 100 100 100 100
0 0 0 0 0 0 0 0 0 0 0 3 13 16 19 42 74 94 97 97 97 97 97 97 100 100 100 100 100 100 97 97 97 97 97 100 100 100 100 100 100 100 100 100 100 100 100 100 100
0 0 0 0 0 0 0 0 0 0 6 6 10 23 55 71 84 94 97 97 97 97 94 97 100 100 100 100 100 100 100 100 97 97 100 100 100 100 100 100 100 100 100 100 100 100 100 100 100
0 0 0 0 0 0 0 0 0 0 10 10 3 29 65 81 90 97 94 94 94 94 90 90 97 100 100 100 100 100 100 100 100 100 100 100 100 100 100 100 100 100 100 100 100 100 100 100 100
0 0 0 0 0 0 0 0 0 0 3 3 16 39 71 90 97 94 94 94 87 90 90 97 97 100 100 100 100 100 100 100 100 100 100 100 100 100 100 100 100 100 100 100 100 100 100 100 100
0 0 0 0 0 0 0 0 0 0 3 13 19 39 71 94 94 94 90 90 87 90 94 97 97 97 97 97 97 100 100 100 100 100 100 100 100 100 100 100 100 100 100 100 100 100 100 94 94
0 0 0 0 0 0 3 3 6 6 13 29 35 42 65 97 90 90 94 94 90 87 90 90 94 94 90 94 97 97 97 100 100 100 100 100 100 100 100 100 100 100 100 97 97 97 97 94 94
0 0 0 0 0 3 3 10 16 19 32 42 45 61 61 94 90 87 87 94 90 87 87 84 84 94 90 90 97 97 97 97 97 100 97 100 100 90 100 90 100 100 97 97 97 97 97 94 84
0 0 0 0 0 3 3 13 16 23 29 45 45 65 77 94 94 87 87 87 81 84 84 87 87 90 94 94 97 94 94 90 90 94 97 94 97 97 90 90 97 97 97 94 97 97 94 81 71
0 0 0 0 3 3 10 13 16 16 32 42 48 65 77 81 90 81 81 77 81 84 84 84 87 84 84 84 90 90 90 90 87 87 94 94 94 94 94 97 97 97 94 90 94 97 84 61 68
0 0 0 0 3 3 6 13 13 16 39 35 39 55 74 81 81 81 84 84 81 77 74 77 84 87 84 84 81 84 87 87 87 87 84 87 97 97 94 94 94 94 97 90 87 87 71 61 61
0 0 0 0 3 3 6 13 23 26 32 35 45 61 68 74 81 81 77 74 74 74 68 71 81 87 87 87 87 77 81 84 84 84 81 81 90 90 94 97 97 90 90 84 90 84 74 81 61
0 0 0 3 3 6 6 10 23 29 35 39 52 68 68 71 74 74 71 71 68 65 71 71 74 77 74 71 74 77 71 77 68 71 74 74 81 87 87 97 97 90 87 81 87 81 84 68 52
3 3 3 6 6 6 6 10 26 29 39 39 52 55 55 65 58 61 65 65 65 65 68 68 68 71 74 71 71 68 68 65 65 58 61 65 65 74 77 81 84 81 84 84 81 81 74 71 58
0 0 0 6 6 3 3 13 29 39 42 42 52 48 48 55 52 55 61 65 65 65 61 65 61 65 61 68 61 61 55 48 48 52 55 52 61 61 68 71 77 71 71 71 74 68 55 61 52
0 0 0 6 6 3 0 13 29 39 42 52 45 52 42 45 52 55 55 55 58 58 58 55 55 58 55 58 61 55 55 55 52 48 45 42 42 39 52 58 61 58 65 65 52 55 65 52 55
0 0 0 0 6 0 0 16 42 35 42 48 45 45 45 42 39 42 45 39 45 52 52 48 45 52 52 52 52 48 48 48 48 45 45 39 35 35 42 42 42 45 52 58 52 52 58 48 42
0 0 0 0 0 0 13 26 42 42 35 32 48 45 42 45 39 39 39 32 39 35 42 45 45 48 48 52 48 48 45 52 42 39 35 39 39 39 39 35 39 39 39 52 42 48 42 39 35
0 0 0 10 3 6 13 16 39 39 35 35 39 32 35 39 32 29 32 32 35 29 39 39 39 45 45 48 48 48 48 42 39 32 32 32 32 35 29 32 29 23 35 29 32 45 42 29 23
0 0 0 6 3 10 10 10 29 35 39 29 26 19 29 29 32 32 26 26 26 23 23 26 35 32 39 42 45 39 39 39 32 32 29 29 32 29 32 29 26 19 23 23 29 35 35 23 23
0 0 0 10 6 6 3 3 23 39 35 32 29 19 23 23 23 19 16 19 19 19 16 19 19 26 26 29 32 29 35 35 32 29 23 19 23 16 19 26 16 16 10 23 29 19 29 16 19
0 0 0 3 0 0 3 3 3 32 42 35 29 19 19 23 16 13 13 16 13 13 13 13 13 16 16 23 29 29 26 29 26 26 19 16 13 10 10 10 6 10 16 13 13 6 6 13 19
0 0 0 0 0 0 0 0 3 16 23 42 32 26 23 19 10 10 13 13 16 16 13 13 13 13 13 19 19 26 23 19 23 19 16 10 6 3 3 0 3 3 6 3 3 3 3 6 10
0 0 0 0 0 0 0 0 0 19 23 32 32 26 19 13 13 13 6 13 13 13 13 13 13 13 13 16 19 19 16 16 13 13 13 6 3 3 0 0 0 3 3 3 0 0 0 0 3
0 0 0 0 0 0 0 0 6 23 26 23 26 19 10 10 6 3 3 10 10 10 10 10 13 10 10 13 13 16 13 3 3 3 3 0 0 0 0 0 0 3 3 0 0 0 0 0 3
0 0 0 0 0 0 0 0 10 29 16 19 13 16 6 3 0 0 0 3 3 3 6 6 10 10 10 10 10 6 0 0 3 3 0 0 0 0 0 0 0 0 3 0 0 0 0 0 0
0 0 0 0 0 0 0 0 0 26 26 19 13 13 6 0 0 0 0 0 0 0 0 0 0 0 0 0 0 0 0 0 0 0 0 0 0 0 0 0 0 0 0 0 0 0 0 0 0
0 0 0 0 0 0 0 0 0 13 23 23 16 16 3 0 0 0 0 0 0 0 0 0 0 0 0 0 0 0 0 0 0 0 0 0 0 0 0 0 0 0 0 0 0 0 0 0 0
0 0 0 0 0 0 0 0 0 6 23 23 16 6 0 0 0 0 0 0 0 0 0 0 0 0 0 0 0 0 0 0 0 0 0 0 0 0 0 0 0 0 0 0 0 0 0 0 0